Theta_e
291 291 290 290 289 288 287 286 287 286 286 286 286 286 286 286 286 286 286 285 285 285
290 289 288 288 288 287 287 286 286 286 285 285 285 284 285 285 284 285 285 285 285 284
289 289 288 288 287 286 285 285 285 284 284 284 284 284 284 284 284 283 284 283 283 283
288 288 288 287 286 286 285 284 283 283 283 282 282 282 282 282 281 281 281 282 281 281
287 287 287 286 285 285 284 284 283 282 281 281 281 281 280 279 280 279 279 280 279 279
287 286 286 285 285 285 283 283 281 280 280 279 279 278 279 278 279 279 279 279 278 278
286 286 286 285 284 283 283 281 280 280 278 278 277 277 277 278 278 279 279 279 278 277
286 286 285 284 283 282 280 280 279 278 277 277 276 276 276 277 277 277 277 277 277 277
285 284 284 283 282 280 279 278 277 276 276 276 276 275 276 277 276 276 276 275 276 276
284 283 282 282 280 278 277 277 276 275 275 274 275 275 276 277 276 275 275 275 274 274
283 281 281 280 278 277 277 275 275 274 274 274 274 275 275 275 275 275 275 274 274 273
282 280 280 277 277 276 276 275 274 274 273 272 272 274 275 275 274 274 274 275 275 274
281 280 278 277 276 276 275 274 274 273 273 272 270 273 274 274 273 273 274 275 275 277
279 278 277 276 275 274 273 272 271 271 271 270 270 270 274 274 273 273 273 274 274 275
Wind_Speed
11 7 7 8 7 6 6 6 7 7 7 7 7 6 5 5 4 5 4 6 5 5
9 9 9 9 8 6 7 6 6 6 6 6 6 6 6 4 5 4 4 5 4 5
9 10 9 8 7 7 7 6 5 5 4 4 4 5 5 4 4 5 3 4 7 6
8 9 8 7 8 7 7 6 5 4 3 3 3 3 3 3 3 5 5 6 6 8
9 9 8 8 8 7 6 5 4 3 2 2 2 2 3 4 5 6 6 7 7 8
9 9 9 8 8 7 6 5 4 2 2 1 1 2 2 4 5 6 6 7 7 8
10 9 8 8 7 7 5 6 4 3 2 2 2 2 2 4 6 7 6 7 8 8
10 10 9 8 8 7 6 5 3 3 4 4 3 2 3 4 6 7 8 8 9 8
11 9 8 8 7 7 6 5 5 5 4 4 3 3 6 6 6 8 9 9 9 9
9 10 9 8 7 7 6 6 6 5 5 5 5 6 8 9 7 8 9 9 10 10
10 10 10 9 8 7 6 7 7 6 5 5 6 9 10 9 8 8 9 9 9 10
11 11 11 11 10 8 7 7 6 5 6 6 6 10 11 9 7 8 8 9 9 9
11 11 11 10 9 7 6 6 6 6 6 7 7 12 12 9 6 7 7 8 8 13
8 8 8 8 7 7 7 6 6 6 6 7 8 9 13 11 7 6 6 7 7 7
Wind_Direction
119 117 116 116 114 109 108 97 89 77 69 62 53 44 42 40 36 25 11 4 355 339
120 120 119 120 117 114 111 105 90 77 75 61 46 36 24 29 24 5 355 350 346 327
134 130 128 126 120 115 116 123 120 107 85 69 56 35 15 14 11 355 351 333 330 324
141 138 137 136 139 146 138 136 128 111 104 87 65 41 8 359 346 339 330 327 326 317
158 154 155 153 151 153 145 150 136 133 125 86 67 28 356 343 338 326 321 321 318 313
171 175 169 161 160 168 160 149 145 153 154 137 57 354 325 324 310 308 307 308 311 308
183 179 175 172 164 169 173 163 170 179 171 235 255 263 291 304 303 306 308 306 304 305
182 180 180 170 172 171 176 168 178 194 208 230 253 257 304 302 305 303 303 299 297 293
185 178 177 173 174 172 180 178 191 209 227 247 251 251 281 289 294 296 295 295 297 301
174 170 177 173 171 184 186 191 208 220 225 245 260 264 272 287 289 290 287 292 296 301
169 172 175 176 180 183 185 198 212 218 226 242 252 258 269 278 279 279 281 284 289 293
177 177 178 183 183 182 187 195 206 212 221 232 252 259 262 272 276 274 279 283 281 285
178 179 183 176 177 173 182 197 207 217 221 228 247 255 255 260 269 272 280 283 285 287
164 171 171 162 166 165 181 196 202 220 232 237 238 247 251 255 255 264 275 282 289 289